FW9022 Weather Reports


Display with metric or nautical units.
time (UTC)temp
F
wind
direction
speed
MPH
gust
MPH
rain 1hr
in
rain 24hr
in
rain mn
in
humidity
%
barometer
mb
20260831182819 86 43 3.0 3.0 0.00 0.00 0.00 57 1022.6
20260831181852 86 343 0.0 2.0 0.00 0.00 0.00 58 1022.6
20260831180835 86 355 0.0 4.0 0.00 0.00 0.00 58 1022.6
20260831175819 86 134 0.0 3.0 0.00 0.00 0.00 62 1022.8
20260831174833 85 128 0.0 3.0 0.00 0.00 0.00 64 1022.8
20260831173826 84 128 0.0 2.0 0.00 0.00 0.00 67 1023.0
20260831172825 84 128 0.0 3.0 0.00 0.00 0.00 68 1023.0
20260831171837 85 136 1.0 3.0 0.00 0.00 0.00 67 1023.0
20260831170843 84 45 2.0 3.0 0.00 0.00 0.00 66 1023.1
20260831165842 85 48 2.0 4.0 0.00 0.00 0.00 68 1023.1
20260831164819 84 11 2.0 4.0 0.00 0.00 0.00 69 1023.1
20260831163853 83 78 0.0 3.0 0.00 0.00 0.00 71 1023.6
20260831162826 83 360 3.0 4.0 0.00 0.00 0.00 70 1023.5
20260831161819 83 294 1.0 2.0 0.00 0.00 0.00 74 1023.5
20260831160847 83 294 1.0 2.0 0.00 0.00 0.00 71 1023.4
20260831155826 83 245 0.0 2.0 0.00 0.00 0.00 73 1023.4
20260831154819 83 210 1.0 4.0 0.00 0.00 0.00 73 1023.4
20260831153836 82 61 0.0 2.0 0.00 0.00 0.00 76 1023.7
20260831152831 81 28 0.0 4.0 0.00 0.00 0.00 76 1023.8
20260831151845 81 132 0.0 4.0 0.00 0.00 0.00 77 1023.8
20260831150849 81 166 0.0 2.0 0.00 0.00 0.00 77 1023.6
20260831145832 80 166 0.0 2.0 0.00 0.00 0.00 77 1023.9
20260831144825 80 166 0.0 1.0 0.00 0.00 0.00 77 1023.9
20260831143820 80 166 0.0 0.0 0.00 0.00 0.00 78 1023.8
20260831142832 78 165 0.0 0.0 0.00 0.00 0.00 79 1024.0
20260831141830 78 166 0.0 0.0 0.00 0.00 0.00 81 1024.0
20260831140835 77 166 1.0 2.0 0.00 0.00 0.00 80 1024.0
20260831135835 76 119 0.0 1.0 0.00 0.00 0.00 83 1024.1
20260831134833 76 118 0.0 0.0 0.00 0.00 0.00 84 1024.1
20260831133827 74 118 0.0 1.0 0.00 0.00 0.00 87 1024.3
20260831132820 73 119 0.0 1.0 0.00 0.00 0.00 89 1023.5
20260831131832 71 118 0.0 2.0 0.00 0.00 0.00 95 1023.5
20260831130857 69 119 1.0 2.0 0.00 0.00 0.00 97 1023.5
20260831125835 67 324 0.0 1.0 0.00 0.00 0.00 99 1023.7
20260831124830 66 180 0.0 0.0 0.00 0.00 0.00 99 1023.7
20260831123827 65 180 0.0 0.0 0.00 0.00 0.00 99 1023.6
20260831122819 65 180 0.0 0.0 0.00 0.00 0.00 98 1023.8
20260831121833 64 180 0.0 0.0 0.00 0.00 0.00 98 1023.8
20260831120857 63 180 0.0 0.0 0.00 0.00 0.00 98 1023.4
20260831115819 63 180 0.0 0.0 0.00 0.00 0.00 98 1023.3
20260831114832 63 180 0.0 0.0 0.00 0.00 0.00 98 1023.3
20260831113826 63 180 0.0 0.0 0.00 0.00 0.00 98 1023.3
20260831112820 63 180 0.0 0.0 0.00 0.00 0.00 98 1023.3
20260831111819 63 180 0.0 0.0 0.00 0.00 0.00 98 1023.3
20260831110843 63 180 0.0 0.0 0.00 0.00 0.00 98 1023.1
20260831105842 63 180 0.0 0.0 0.00 0.00 0.00 98 1023.1
20260831104834 63 180 0.0 0.0 0.00 0.00 0.00 98 1023.1
20260831103832 63 180 0.0 0.0 0.00 0.00 0.00 97 1022.8
20260831102826 63 180 0.0 0.0 0.00 0.00 0.00 98 1022.6
20260831101820 63 180 0.0 0.0 0.00 0.00 0.00 98 1022.6
20260831100908 63 180 0.0 0.0 0.00 0.00 0.00 97 1022.3
20260831095826 63 180 0.0 0.0 0.00 0.00 0.00 97 1022.3
20260831094820 63 180 0.0 0.0 0.00 0.00 0.00 97 1022.3
20260831093835 64 180 0.0 0.0 0.00 0.00 0.00 97 1022.3
20260831092832 64 180 0.0 0.0 0.00 0.00 0.00 97 1022.2
20260831091847 64 180 0.0 0.0 0.00 0.00 0.00 97 1022.2
20260831090851 64 180 0.0 0.0 0.00 0.00 0.00 97 1022.7
20260831085830 64 180 0.0 0.0 0.00 0.00 0.00 97 1022.6
20260831084827 64 180 0.0 0.0 0.00 0.00 0.00 97 1022.6
20260831083821 65 180 0.0 0.0 0.00 0.00 0.00 97 1022.6
20260831082836 65 180 0.0 0.0 0.00 0.00 0.00 97 1022.4
20260831081853 65 180 0.0 0.0 0.00 0.00 0.00 97 1022.4
20260831080836 65 180 0.0 0.0 0.00 0.00 0.00 97 1022.6
20260831075817 65 180 0.0 0.0 0.00 0.00 0.00 97 1022.8
20260831074830 65 180 0.0 0.0 0.00 0.00 0.00 97 1022.8
20260831073828 65 180 0.0 0.0 0.00 0.00 0.00 97 1022.8
20260831072822 66 180 0.0 0.0 0.00 0.00 0.00 97 1022.7
20260831071836 66 180 0.0 0.0 0.00 0.00 0.00 97 1022.7
20260831070844 66 180 0.0 0.0 0.00 0.00 0.00 97 1022.7
20260831065825 66 180 0.0 0.0 0.00 0.00 0.00 97 1022.8
20260831064818 66 180 0.0 0.0 0.00 0.00 0.00 97 1022.8
20260831063832 66 180 0.0 0.0 0.00 0.00 0.00 97 1022.8
20260831062831 66 180 0.0 0.0 0.00 0.00 0.00 97 1022.8
20260831061824 67 180 0.0 0.0 0.00 0.00 0.00 97 1022.8
20260831060849 67 180 0.0 0.0 0.00 0.00 0.00 97 1023.0
20260831055833 67 180 0.0 0.0 0.00 0.00 0.00 96 1022.9
20260831054827 67 180 0.0 0.0 0.00 0.00 0.00 97 1022.9
20260831053842 67 180 0.0 0.0 0.00 0.00 0.00 96 1023.2
20260831052834 67 180 0.0 0.0 0.00 0.00 0.00 96 1023.0
20260831051833 68 180 0.0 0.0 0.00 0.00 0.00 96 1023.0
20260831050838 68 180 0.0 0.0 0.00 0.00 0.00 96 1023.1
20260831045818 68 180 0.0 0.0 0.00 0.00 0.00 96 1022.9
20260831044831 68 180 0.0 0.0 0.00 0.00 0.00 96 1022.9
20260831043850 68 180 0.0 0.0 0.00 0.00 0.00 96 1022.9
20260831042823 69 180 0.0 0.0 0.00 0.00 0.00 95 1023.0
20260831041817 69 180 0.0 0.0 0.00 0.00 0.00 96 1023.0
20260831040902 69 180 0.0 0.0 0.00 0.00 0.00 96 1023.1
20260831035844 69 180 0.0 0.0 0.00 0.00 0.00 95 1023.2
20260831034837 70 180 0.0 0.0 0.00 0.00 0.00 95 1023.2
20260831033831 70 180 0.0 0.0 0.00 0.00 0.00 95 1023.2
20260831032829 70 180 0.0 0.0 0.00 0.00 0.00 95 1023.2
20260831031823 70 180 0.0 0.0 0.00 0.00 0.00 95 1023.2
20260831030848 71 180 0.0 0.0 0.00 0.00 0.00 94 1023.3
20260831025828 71 180 0.0 0.0 0.00 0.00 0.00 94 1023.4
20260831024825 71 180 0.0 0.0 0.00 0.00 0.00 94 1023.4
20260831023820 71 180 0.0 0.0 0.00 0.00 0.00 93 1023.4
20260831022833 71 180 0.0 0.0 0.00 0.00 0.00 93 1023.3
20260831021847 72 180 0.0 1.0 0.00 0.00 0.00 93 1023.3
20260831020834 72 180 0.0 1.0 0.00 0.00 0.00 92 1023.6
20260831015854 72 180 0.0 2.0 0.00 0.00 0.00 92 1023.4
20260831014826 73 180 0.0 1.0 0.00 0.00 0.00 92 1023.4
20260831013840 73 180 0.0 0.0 0.00 0.00 0.00 91 1023.1
20260831012836 74 180 0.0 1.0 0.00 0.00 0.00 89 1023.0
20260831011830 74 180 0.0 1.0 0.00 0.00 0.00 88 1023.0
20260831010834 75 180 0.0 2.0 0.00 0.00 0.00 88 1022.9
20260831005818 75 205 0.0 2.0 0.00 0.00 0.00 87 1022.7
20260831004832 76 217 0.0 3.0 0.00 0.00 0.00 85 1022.7
20260831003826 76 211 0.0 3.0 0.00 0.00 0.00 86 1022.8
20260831002820 76 211 0.0 2.0 0.00 0.00 0.00 86 1022.7
20260831001818 76 132 0.0 3.0 0.00 0.00 0.00 85 1022.7
20260831000842 77 163 0.0 1.0 0.00 0.00 0.00 85 1022.6
20260830235821 78 163 0.0 1.0 0.00 0.00 0.00 83 1022.3
20260830234820 78 163 0.0 1.0 0.00 0.00 0.00 81 1022.3
20260830233854 79 118 0.0 0.0 0.00 0.00 0.00 81 1022.1
20260830232827 79 118 0.0 0.0 0.00 0.00 0.00 80 1021.9
20260830231822 79 118 0.0 1.0 0.00 0.00 0.00 80 1021.9
20260830230851 80 118 0.0 4.0 0.00 0.00 0.00 79 1021.9
20260830225830 80 105 0.0 2.0 0.00 0.00 0.00 78 1021.9
20260830224824 80 106 1.0 2.0 0.00 0.00 0.00 77 1021.9
20260830223835 81 105 0.0 0.0 0.00 0.00 0.00 77 1021.7
20260830222854 81 105 0.0 2.0 0.00 0.00 0.00 75 1021.7
20260830221826 82 105 0.0 5.0 0.00 0.00 0.00 73 1021.7
20260830220850 83 163 2.0 6.0 0.00 0.00 0.00 70 1021.6
20260830215830 83 113 1.0 3.0 0.00 0.00 0.00 69 1021.7
20260830214828 83 142 3.0 6.0 0.00 0.00 0.00 67 1021.7
20260830213821 84 198 3.0 6.0 0.00 0.00 0.00 63 1021.7
20260830212855 84 217 0.0 3.0 0.00 0.00 0.00 63 1021.6
20260830211832 85 182 1.0 5.0 0.00 0.00 0.00 61 1021.6
20260830210837 86 137 1.0 4.0 0.00 0.00 0.00 60 1021.6
20260830205836 86 205 1.0 4.0 0.00 0.00 0.00 58 1021.6
20260830204830 86 227 2.0 5.0 0.00 0.00 0.00 61 1021.6
20260830203827 86 183 1.0 7.0 0.00 0.00 0.00 60 1021.6
20260830202822 86 126 1.0 4.0 0.00 0.00 0.00 62 1021.5
20260830201835 86 146 1.0 4.0 0.00 0.00 0.00 63 1021.5
20260830200844 86 130 2.0 7.0 0.00 0.00 0.00 63 1022.0
20260830195844 85 132 2.0 7.0 0.00 0.00 0.00 62 1021.9
20260830194836 86 132 0.0 5.0 0.00 0.00 0.00 64 1021.9
20260830193850 84 152 1.0 4.0 0.00 0.00 0.00 64 1022.2
20260830192826 85 74 2.0 9.0 0.00 0.00 0.00 64 1022.5
20260830191820 84 184 3.0 7.0 0.00 0.00 0.00 65 1022.5
20260830190844 84 105 2.0 6.0 0.00 0.00 0.00 64 1022.7
20260830185824 86 121 1.0 5.0 0.00 0.00 0.00 64 1022.7
20260830184841 85 155 4.0 7.0 0.00 0.00 0.00 65 1022.7
20260830183832 85 141 2.0 5.0 0.00 0.00 0.00 65 1023.1